CZ-3A DEB, 36968

Orbit data source: Space-Track

CZ-3A DEB, 36968 is space debris in HEO originally from a launch on Fri, 02 Feb 2007 UTC launched from the Xichang Space Center, China (XSC). Debris objects in space refer to the collection of defunct objects orbiting the Earth. Examples of debris include non-operational satellites, rocket bodies, and fragments generated from explosions, collisions, or faulty payload assembly.

Not visible in the next 10 days
CZ-3A DEB details
Identifier
36968, 2007-003AE
Orbit
HEO
Last TLE update20 hours ago
Origin
Flag of CNCNSA (CN / PRC)
ManufacturerUnknown
MissionSpacecraft
Bus & MotorUnknown
MassUnknown
Launch date (UTC)
2007-02-02 (18 years ago)
Launch vehicleUnknown
Launch site
Xichang Space Center, China (XSC)
Object type
Payload
Rocket body
Debris
Shape & HBRUnknown
Radar Cross SectionMedium (>0.1 m² and <1 m²)

Expand to show TLE details & history

TLE from 20 hours ago
0 CZ-3A DEB
1 36968U 07003AE  24361.01592691  .00000913  00000-0  68374-2 0  9994
2 36968  25.9085 296.3704 7468041  89.2193 347.1537  1.95257899119855
Epoch: 2024-12-26T00:22Z
Definitive object data (Epoch: 2024-12-26T00:22:56.085Z)
Latitude0.00007°
Longitude-164.39661°
Altitude5,485.583 km
Speed7.242 km/s
True Right ascension19h 45m 21s
True Declination0° 00' 00"
Sunlit
Object was in daylight at TLE epoch
Visualization TLE readout
Latitude-25.62941°
Longitude114.74011°
Altitude39,298.644 km
Speed1.647 km/s
Apparent Right ascension13h 54m 34s
Apparent Declination-30° 09' 27"
Sunlit
Object is in daylight
Visualization observer readout
Local Sidereal Time19:58:42
Azimuth246.531° WSW
Elevation-19.529°
Doppler factor1
Orbital elements
Apogee altitude40,861.227 km
Perigee altitude469.118 km
Semi-major axis27,043.31 km
Eccentricity0.7468041
Inclination25.9085°
RAAN296.3704°
Arg. of periapsis89.2193°
True anomaly271.32466°
Mean anomaly347.1537°
Eccentric anomaly319.18773°
Mean motion0.48804 °/min
BSTAR0.0068374
Orbital period737.65 mins
Loading maneuver chart data...
Loading historical data...
Loading historical data...
Loading historical data...
Loading historical data...
Loading historical data...
Loading historical data...
Loading historical data...

CZ-3A DEB Visibility forecast

Observer location: undefined°, undefined

CZ-3A DEB is not visible in the next 10 days
Span
Click to sort rows by Start time (UTC) header in descending order
Start Az.
Max El. time (UTC)
Max El. Az.
Max El.
End time (UTC)
End Az.
|